This is the latest recevied weather packets stored in our database for station/object W8AN. If no packets are shown the sender has not sent any weather packets the latest 10 day(s).
| Time | Temp. | Humidity | Pressure | Rain* | Wind** | Luminosity | Snow |
|---|---|---|---|---|---|---|---|
| 1777416813 | 15.56° C | 71% | 4268.4 hPa | 0 mm | - | 65 W/m² | - |
| 1777416509 | 16.11° C | 70% | 4268.4 hPa | 0 mm | - | 89 W/m² | - |
| 1777416205 | 16.11° C | 70% | 4268.3 hPa | 0 mm | - | 85 W/m² | - |
| 1777415905 | 16.11° C | 71% | 4268.4 hPa | 0 mm | - | 58 W/m² | - |
| 1777415595 | 16.11° C | 70% | 4268 hPa | 0 mm | - | 81 W/m² | - |
| 1777415290 | 16.11° C | 70% | 4268.1 hPa | 0 mm | - | 83 W/m² | - |
| 1777414986 | 16.11° C | 71% | 4267.9 hPa | 0 mm | - | 68 W/m² | - |
| 1777414686 | 16.11° C | 71% | 4267.7 hPa | 0 mm | - | 96 W/m² | - |
| 1777414381 | 16.11° C | 70% | 4267.7 hPa | 0 mm | - | 101 W/m² | - |
| 1777414076 | 16.11° C | 71% | 4267.3 hPa | 0 mm | - | 133 W/m² | - |
| 1777413770 | 16.67° C | 71% | 4267.3 hPa | 0 mm | - | 123 W/m² | - |
| 1777413466 | 16.67° C | 71% | 4267.3 hPa | 0 mm | - | 396 W/m² | - |
| 1777413163 | 16.67° C | 71% | 4267.2 hPa | 0 mm | - | 182 W/m² | - |
| 1777412858 | 16.67° C | 71% | 4267.3 hPa | 0 mm | - | 142 W/m² | - |
| 1777412558 | 16.67° C | 71% | 4267.4 hPa | 0 mm | - | 183 W/m² | - |
| 1777412255 | 16.67° C | 71% | 4267 hPa | 0 mm | - | 167 W/m² | - |
| 1777411951 | 16.67° C | 71% | 4267.2 hPa | 0 mm | - | 208 W/m² | - |
| 1777411650 | 16.67° C | 71% | 4267.2 hPa | 0 mm | - | 212 W/m² | - |
| 1777411345 | 16.67° C | 72% | 4267.2 hPa | 0 mm | - | 177 W/m² | - |
| 1777411044 | 16.67° C | 71% | 4267.3 hPa | 0 mm | - | 207 W/m² | - |
| 1777410740 | 16.67° C | 70% | 4267.4 hPa | 0 mm | - | 216 W/m² | - |
| 1777410434 | 16.67° C | 70% | 4267.3 hPa | 0 mm | - | 250 W/m² | - |
| 1777410132 | 16.67° C | 69% | 4267.2 hPa | 0 mm | - | 264 W/m² | - |
| 1777409828 | 16.67° C | 71% | 4267.3 hPa | 0 mm | - | 199 W/m² | - |
| 1777409523 | 16.67° C | 72% | 4267.3 hPa | 0 mm | - | 163 W/m² | - |
* Rain latest hour (hover to see other rain measurements)
** Current wind speed in m/s (hover to see current wind gust speed)